Minot AFB, ND

11:42 AM CST on February 22, 2018 (GMT -0600)
Minot Air Force Base

Weather History for KMIB - August, 2013

Change the Weather History Date:

Wednesday, August 14, 2013

  Actual Average Record
Temperature  
Mean Temperature 64 °F -  
Max Temperature 75 °F 79 °F 102 °F (2015)
Min Temperature 55 °F 53 °F 47 °F (2006)
Growing Degree Days 14 (Base 50)    
Moisture  
Dew Point 53 °F    
Average Humidity 67    
Maximum Humidity 86    
Minimum Humidity 48    
Precipitation  
Precipitation 0.16 in - - ()
Sea Level Pressure  
Sea Level Pressure 30.12 in    
Wind  
Wind Speed 7 mph (SE)    
Max Wind Speed 18 mph    
Max Gust Speed -    
Visibility 10 miles    
Events Rain    
Averages and records for this station are not official NWS values.
T = Trace of Precipitation, MM = Missing Value Source: NWS Daily Summary

Daily Weather History Graph

Daily Weather History Graph

Search for Another Location

Airport or City:

Trip Planner

Search our weather history database for the weather conditions in past years. The results will help you decide how hot, cold, wet, or windy it might be!

Date:

Astronomy

Aug. 14, 2013 Rise Set
Actual Time 6:38 AM CDT 9:00 PM CDT
Civil Twilight 6:03 AM CDT 9:35 PM CDT
Nautical Twilight 5:19 AM CDT 10:18 PM CDT
Astronomical Twilight 4:29 AM CDT 11:08 PM CDT
Moon 3:21 PM CDT (8/14) No Moon Set
Length of Visible Light 15h 31m
Length of Day
14h 22m
First Quarter, 53% of the Moon is Illuminated
Aug 14
First Quarter
Aug 20
Full
Aug 28
Last Quarter
Sep 5
New
Sep 12
First Quarter

Hourly Weather History & Observations

Time (CDT) Temp. Dew Point Humidity Pressure Visibility Wind Dir Wind Speed Gust Speed Precip Events Conditions
12:58 AM 55.6 °F 51.4 °F 86% 30.17 in 10.0 mi SSE 5.8 mph - N/A   Mostly Cloudy
1:58 AM 57.6 °F 52.3 °F 83% 30.17 in 10.0 mi SSE 3.5 mph - N/A   Mostly Cloudy
2:58 AM 59.7 °F 51.1 °F 73% 30.17 in 10.0 mi South 5.8 mph - N/A   Overcast
3:58 AM 59.9 °F 49.8 °F 69% 30.17 in 10.0 mi SE 3.5 mph - N/A   Overcast
4:58 AM 60.4 °F 50.0 °F 68% 30.17 in 10.0 mi East 5.8 mph - N/A   Mostly Cloudy
5:53 AM 59.0 °F 51.8 °F 77% 30.15 in 6.0 mi SSE 4.6 mph - N/A   Haze
5:58 AM 59.2 °F 51.8 °F 77% 30.16 in 6.0 mi SSE 4.6 mph - N/A   Haze
6:03 AM 59.0 °F 51.8 °F 77% 30.15 in 10.0 mi SSE 4.6 mph - N/A   Overcast
6:58 AM 58.6 °F 53.4 °F 83% 30.15 in 10.0 mi Calm Calm - N/A   Mostly Cloudy
7:58 AM 60.8 °F 51.6 °F 72% 30.14 in 10.0 mi East 2.3 mph - N/A   Mostly Cloudy
8:58 AM 61.7 °F 52.2 °F 71% 30.14 in 10.0 mi SE 4.6 mph - N/A   Scattered Clouds
9:58 AM 62.2 °F 53.2 °F 72% 30.15 in 10.0 mi SE 6.9 mph - 0.00 in   Overcast
10:58 AM 64.4 °F 52.2 °F 64% 30.15 in 10.0 mi SE 8.1 mph - N/A   Mostly Cloudy
11:58 AM 66.6 °F 51.8 °F 59% 30.14 in 10.0 mi SE 8.1 mph - N/A   Mostly Cloudy
12:58 PM 68.7 °F 52.2 °F 55% 30.13 in 10.0 mi SE 10.4 mph - N/A   Partly Cloudy
1:58 PM 71.8 °F 51.1 °F 48% 30.12 in 10.0 mi ESE 12.7 mph - N/A   Scattered Clouds
2:58 PM 72.0 °F 53.2 °F 52% 30.10 in 10.0 mi ESE 11.5 mph - N/A   Scattered Clouds
3:58 PM 73.0 °F 53.6 °F 50% 30.08 in 10.0 mi ESE 12.7 mph - N/A   Clear
4:58 PM 74.8 °F 54.3 °F 49% 30.07 in 10.0 mi ESE 13.8 mph - N/A   Clear
5:58 PM 72.7 °F 54.5 °F 53% 30.05 in 10.0 mi East 15.0 mph - N/A   Clear
6:58 PM 70.9 °F 54.1 °F 55% 30.04 in 10.0 mi ESE 18.4 mph - N/A   Clear
7:58 PM 68.4 °F 53.2 °F 58% 30.03 in 10.0 mi ESE 15.0 mph - N/A   Scattered Clouds
8:58 PM 64.8 °F 53.8 °F 68% 30.03 in 10.0 mi ESE 12.7 mph - N/A   Partly Cloudy
9:58 PM 62.2 °F 53.2 °F 72% 30.04 in 10.0 mi ESE 11.5 mph - N/A   Clear
10:58 PM 61.9 °F 54.9 °F 78% 30.05 in 10.0 mi ENE 11.5 mph - N/A   Scattered Clouds
11:58 PM 62.6 °F 56.8 °F 81% 30.08 in 10.0 mi North 5.8 mph - 0.16 in Rain Heavy Rain